www.pogodaiklimat.ru

Погода и климат >> Архив погоды >> Бельгия >> Шаффен


ПОГОДА в Шаффене

  • Прогноз погоды в Шаффене
  • Монитор погоды в Шаффене

АРХИВ ПОГОДЫ в Шаффене

Время (UTC), дата Ветер
(напр.,м/с)
 
Видим.   Явления Облачность Т
(С)
Тd
(С)
f
(%)
Тe
(С)
Тes
(С)
Комфортность P
(гПа)
Po
(гПа)
Тmin
(С)
Tmax
(С)
R
(мм)
R24
(мм)
S
(см)
13 13.06 Ю 7
{12}
20 км 9/4 1200 м
[Cu Sc Ac trans]
+16.9 +8.9 59 +16 +17 1012.0 1005.7
14 13.06 Ю 5
{9}
20 км {дождь, морось} н/о +17.1 +9.7 62 +16 +16 1011.7 1005.6
15 13.06 Ю 7
{14}
20 км {дождь, морось} н/о +18.9 +8.6 51 +19 +19 1011.2 1005.1
16 13.06 ЮЗ 2
{12}
20 км {дождь} н/о +17.5 +10.9 65 +18 +18 1011.3 1005.2
17 13.06 Ю 7
{14}
20 км н/о +18.5 +8.7 53 +18 +18 1011.0 1004.8
18 13.06 Ю 5
{14}
20 км {дождь, морось} н/о +17.8 +9.8 59 +17 +17 1011.3 1005.2 +19.6 0.4
19 13.06 Ю 4
{9}
20 км н/о +17.1 +10.7 66 +17 +17 1011.8 1005.7
20 13.06 З 3
{6}
20 км н/о +15.9 +10.4 70 +15 +15 1012.6 1006.3
21 13.06 СЗ 2
{9}
20 км н/о +14.3 +10.5 78 +14 +14 1013.6 1007.2
22 13.06
{2}
20 км н/о +14.0 +10.7 80 1014.0 1007.7
23 13.06
{1}
20 км н/о +13.3 +10.6 84 1013.7 1007.6
00 14.06 нст 1
{9}
20 км н/о +12.6 +10.8 89 +13 +13 1013.7 1007.5
01 14.06
{1}
20 км н/о +12.0 +10.9 93 1013.5 1007.2
02 14.06 ЮВ 2
{2}
7000 м н/о +11.4 +10.8 96 +10 +10 1013.0 1006.7
03 14.06 Ю 2
{3}
15 км н/о +11.6 +10.7 94 +10 +10 1013.1 1006.7
04 14.06
{2}
15 км 9/0
[Ac As Ci fib]
+11.8 +10.6 92 1013.3 1007.1
05 14.06 Ю 2
{3}
15 км 9/4 2000 м
[Sc Ac As Cs]
+12.1 +11.0 93 +11 +11 1013.6 1007.2
06 14.06 Ю 2
{3}
15 км 9/5 1500 м
[Sc Ac As Cs]
+13.1 +10.9 86 +12 +13 1014.2 1007.8 +11.3
07 14.06
{3}
15 км слаб. дождь 9/4 1500 м
[Sc Ac As]
+14.3 +10.7 79 1015.0 1008.7
08 14.06 В 2
{3}
15 км в посл. час дождь 9/3 900 м
[Sc Ac As Ci fib]
+14.3 +12.3 88 +14 +18 1013.2 1007.1
09 14.06 ЮВ 4
{7}
20 км {дождь} 8/3 900 м
[Cu Sc Ac As Ci fib]
+18.3 +13.3 73 +19 +22 1014.2 1008.2
10 14.06 Ю 5
{8}
20 км 8/3 900 м
[Cu Sc Ac As Ci fib]
+19.4 +11.0 58 +20 +24 1014.7 1008.6
11 14.06 Ю 4
{8}
20 км 8/1 1000 м
[Sc Ac As Ci fib]
+20.4 +11.8 58 +22 +29 комфорт 1015.0 1008.7
12 14.06 Ю 5
{9}
20 км {дождь} 8/1 1000 м
[Sc Ac As Ci fib]
+21.8 +12.7 56 +24 +29 комфорт 1014.7 1008.7 0.6
13 14.06 Ю 4
{8}
20 км н/о +23.2 +12.4 51 +26 +26 жарко 1014.5 1008.3
14 14.06 ЮЗ 3
{7}
20 км н/о +23.2 +12.2 50 +26 +26 жарко 1013.8 1007.7
15 14.06 ЮЗ 3
{8}
20 км н/о +23.7 +11.7 47 +25 +25 комфорт 1013.2 1007.2
16 14.06
{4}
20 км н/о +24.2 +13.1 50 1012.7 1006.7
17 14.06
{4}
20 км н/о +24.3 +11.9 46 1012.6 1006.6
18 14.06 нст 1
{8}
20 км н/о +23.2 +13.1 53 +26 +26 жарко 1012.2 1006.2 +24.7 0.6
19 14.06 СЗ 2
{3}
20 км н/о +21.9 +12.7 56 +24 +24 комфорт 1012.3 1006.2
20 14.06 С 2
{3}
20 км н/о +20.2 +12.8 62 +23 +23 комфорт 1012.3 1006.2
21 14.06 С 3
{5}
20 км н/о +19.6 +12.8 65 +21 +21 комфорт 1012.5 1006.3
22 14.06 С 3
{5}
20 км н/о +19.2 +13.4 69 +21 +21 комфорт 1012.3 1006.2
23 14.06 С 4
{6}
20 км {дождь} н/о +17.7 +14.0 79 +17 +17 1011.7 1005.6
00 15.06 С 2
{6}
13 км слаб. дождь н/о +16.6 +14.4 87 +17 +17 1010.7 1004.7 0.2
01 15.06
{4}
11 км слаб. дождь н/о +16.2 +14.2 88 1011.0 1004.7
02 15.06
{3}
4800 м слаб. дождь н/о +15.4 +14.7 96 1010.7 1004.6
03 15.06 нст 1
{4}
1900 м дождь н/о +15.3 +14.7 96 +16 +16 1010.7 1004.7
04 15.06 З 2
{4}
2000 м слаб. дождь н/о +14.8 +14.5 98 +14 +14 1011.1 1004.8
05 15.06 СЗ 3
{5}
2000 м сильн. дождь н/о +14.1 +13.7 97 +13 +13 1011.2 1005.0
06 15.06 СЗ 3
{8}
6000 м {дождь} н/о +13.7 +13.3 97 +12 +12 1011.5 1005.2 +13.3 11
07 15.06 З 3
{6}
3400 м дымка {дождь} н/о +14.2 +13.7 97 +13 +13 1012.7 1006.5
08 15.06 З 3
{6}
7000 м н/о +15.9 +14.4 91 +15 +15 1013.2 1007.1
09 15.06 нст 1
{6}
20 км {дождь, морось} н/о +17.0 +14.4 85 +18 +18 1013.8 1007.7
10 15.06 ЮЗ 2
{3}
19 км н/о +17.6 +14.5 82 +18 +18 1014.3 1008.2
11 15.06 З 3
{5}
17 км н/о +17.5 +14.5 83 +18 +18 1015.0 1008.7
12 15.06 З 5
{9}
19 км {дождь, морось} н/о +19.1 +13.7 71 +20 +20 1015.6 1009.5 0.0
13 15.06 З 4
{9}
20 км н/о +20.5 +13.4 64 +23 +23 комфорт 1015.5 1009.3
14 15.06 ЮЗ 3
{7}
20 км н/о +21.2 +12.3 57 +23 +23 комфорт 1015.5 1009.3
15 15.06 СЗ 2
{9}
20 км н/о +20.6 +12.8 61 +24 +24 комфорт 1015.3 1009.2
16 15.06 З 4
{6}
20 км н/о +21.1 +13.1 60 +23 +23 комфорт 1015.3 1009.2
17 15.06 СЗ 2
{5}
20 км н/о +21.0 +13.6 63 +24 +24 комфорт 1015.2 1009.2
18 15.06 З 4
{9}
20 км н/о +20.7 +8.8 46 +22 +22 комфорт 1015.6 1009.5 +22.2 0.0
19 15.06 СЗ 2
{8}
20 км н/о +18.0 +12.3 69 +19 +19 1016.1 1009.8
20 15.06 СЗ 2
{2}
20 км н/о +15.6 +12.4 81 +16 +16 1016.6 1010.2
21 15.06 нст 1
{8}
20 км н/о +15.1 +12.5 84 +16 +16 1016.7 1010.6
22 15.06
{1}
16 км н/о +14.3 +12.7 90 1017.5 1011.2
23 15.06 Ю 2
{2}
10 км н/о +13.7 +12.7 94 +13 +13 1018.1 1011.7
00 16.06 нст 1
{8}
9000 м н/о +12.9 +12.0 94 +13 +13 1018.2 1012.0
01 16.06
{4}
20 км н/о +13.8 +10.3 79 1018.2 1011.8
02 16.06
{4}
20 км н/о +12.8 +10.0 83 1018.5 1012.2
03 16.06 нст 2
{4}
20 км н/о +13.5 +9.5 77 +13 +13 1018.6 1012.2
04 16.06 Ю 2
{4}
20 км н/о +13.0 +9.5 79 +12 +12 1019.0 1012.7
05 16.06 Ю 2
{4}
20 км н/о +13.8 +10.1 78 +13 +13 1019.5 1013.2
06 16.06 ЮЗ 3
{6}
20 км н/о +15.1 +10.7 75 +14 +14 1019.6 1013.3 +12.4
07 16.06 Ю 3
{6}
20 км н/о +16.2 +11.5 74 +16 +16 1020.0 1013.7
08 16.06 Ю 4
{7}
20 км н/о +17.1 +11.7 71 +17 +17 1020.2 1014.0
09 16.06 ЮЗ 3
{7}
20 км н/о +17.7 +11.7 68 +18 +18 1020.3 1014.2
10 16.06 ЮЗ 4
{9}
20 км н/о +18.0 +11.8 67 +18 +18 1020.8 1014.7
11 16.06 Ю 4
{8}
20 км н/о +18.2 +11.4 64 +18 +18 1021.0 1014.7
12 16.06 ЮЗ 3
{9}
20 км {дождь} н/о +18.7 +12.1 65 +20 +20 1021.1 1014.8 0.0
13 16.06 Ю 4
{7}
20 км н/о +19.8 +11.2 58 +21 +21 комфорт 1020.8 1014.7
14 16.06 ЮЗ 3
{6}
20 км н/о +21.3 +11.2 53 +23 +23 комфорт 1020.7 1014.7
15 16.06 ЮЗ 2
{7}
20 км н/о +20.4 +10.9 54 +23 +23 комфорт 1020.8 1014.7
16 16.06 ЮЗ 3
{6}
20 км н/о +21.8 +12.0 54 +24 +24 комфорт 1020.7 1014.7
17 16.06 ЮЗ 2
{5}
20 км н/о +20.7 +10.6 52 +23 +23 комфорт 1020.7 1014.6
18 16.06 нст 2
{7}
20 км н/о +20.3 +11.4 57 +23 +23 комфорт 1021.0 1014.8 +22.1 0.0
19 16.06 ЮЗ 3
{5}
20 км н/о +18.7 +12.0 65 +20 +20 1021.2 1015.0
20 16.06
{3}
20 км н/о +18.6 +11.4 63 1021.2 1015.1
21 16.06 нст 1
{5}
20 км н/о +17.7 +11.3 66 +19 +19 1021.5 1015.2
22 16.06
{2}
20 км н/о +16.2 +11.7 75 1021.7 1015.3
23 16.06
{2}
20 км н/о +15.4 +11.7 79 1021.6 1015.2
00 17.06 нст 1
{5}
20 км н/о +14.3 +12.1 87 +15 +15 1021.7 1015.3
01 17.06
{2}
14 км н/о +13.5 +12.5 94 1021.5 1015.2
02 17.06
{2}
5000 м н/о +12.6 +12.0 96 1021.5 1015.2
03 17.06 нст 1
{2}
1900 м н/о +12.4 +11.7 95 +12 +12 1021.2 1015.0
04 17.06 Ю 2
{2}
12 км туман поземный 3/0
[Ac trans Ci fib]
+12.4 +11.8 96 +11 +11 1021.3 1015.0
05 17.06
{2}
12 км 3/0
[Ac trans Ci fib]
+13.6 +12.4 92 1021.1 1014.7
06 17.06 Ю 2
{3}
15 км 3/0
[Ci fib]
+15.2 +12.6 84 +15 +18 1021.2 1014.8 +12.1
07 17.06
{3}
20 км 4/0
[Ci fib]
+17.7 +12.8 73 1021.2 1015.1
08 17.06 ЮВ 2
{4}
20 км 5/0
[Ci fib]
+20.0 +12.7 63 +22 +31 комфорт 1021.1 1014.8
09 17.06 Ю 3
{5}
20 км 5/1 1050 м
[Cu hum Ci fib]
+22.1 +11.7 52 +24 +33 комфорт 1020.7 1014.7
10 17.06 Ю 3
{6}
20 км 5/3 1140 м
[Cu hum Ci fib]
+22.3 +11.4 50 +24 +33 комфорт 1020.3 1014.2
11 17.06 Ю 2
{6}
20 км 4/3 1260 м
[Cu hum Ci fib]
+24.0 +11.4 45 +25 +37 комфорт 1019.8 1013.7
12 17.06 Ю 2
{6}
20 км 4/3 1500 м
[Cu hum Ci fib]
+24.6 +11.9 45 +26 +38 жарко 1019.5 1013.5
13 17.06 Ю 3
{6}
20 км 4/3 1500 м
[Cu hum Ci fib]
+25.3 +12.2 44 +27 +36 жарко 1019.0 1013.0
14 17.06 ЮВ 3
{6}
20 км 4/4 1500 м
[Cu hum Ci fib]
+25.0 +11.1 42 +26 +33 жарко 1018.6 1012.5
15 17.06 Ю 2
{6}
20 км 4/4 1500 м
[Sc diur, vesp Ci fib]
+25.6 +11.1 40 +27 +33 жарко 1018.2 1012.1
16 17.06
{5}
20 км 3/3 1500 м
[Sc diur, vesp Ci fib]
+26.2 +11.5 40 1017.7 1011.7
17 17.06
{3}
20 км 1/1 1500 м
[Sc diur, vesp Ci fib]
+25.8 +11.6 41 1017.3 1011.3
18 17.06 нст 1
{6}
20 км 1/1 1500 м
[Sc diur, vesp Ci fib]
+25.0 +11.8 44 +27 +28 жарко 1017.1 1011.0 +26.3
19 17.06
{1}
20 км 1/0
[Ci fib]
+25.2 +12.1 44 1016.8 1010.8
20 17.06
{1}
20 км н/о +22.3 +11.7 51 1016.8 1010.7
21 17.06 нст 1
{3}
20 км н/о +21.3 +11.5 54 +23 +23 комфорт 1016.8 1010.7
22 17.06 СЗ 2
{3}
20 км н/о +19.1 +12.0 63 +21 +21 комфорт 1016.8 1010.7
23 17.06 СЗ 2
{3}
20 км н/о +18.5 +12.1 66 +20 +20 1016.8 1010.7
00 18.06 С 2
{4}
20 км н/о +17.3 +12.8 75 +18 +18 1016.7 1010.5
01 18.06
{2}
20 км н/о +16.7 +13.1 79 1016.6 1010.3
02 18.06
{2}
20 км н/о +15.5 +12.9 84 1016.1 1009.8
03 18.06 нст 1
{2}
13 км н/о +15.9 +13.5 86 +17 +17 1015.7 1009.6
04 18.06
{1}
12 км туман поземный 6/1 1500 м
[Sc Ci fib]
+15.1 +13.5 90 1015.7 1009.3
05 18.06
{2}
12 км 6/1 2000 м
[Sc Ci fib]
+15.5 +13.8 90 1015.8 1009.6
06 18.06 нст 1
{3}
15 км 6/0
[Ci fib]
+18.2 +14.6 80 +20 +23 1015.8 1009.7 +14.0
07 18.06
{3}
15 км 6/0
[Ci fib]
+20.3 +14.6 70 1015.8 1009.7
08 18.06
{2}
15 км 6/0
[Ci fib]
+22.0 +14.3 62 1015.5 1009.3
09 18.06 нст 1
{3}
20 км 8/0
[Ci]
+23.2 +14.8 59 +27 +39 душно 1015.1 1009.0
10 18.06 С 2
{4}
20 км 8/1 900 м
[Cu hum Ci]
+25.1 +13.5 49 +27 +39 жарко 1014.7 1008.7
11 18.06
{4}
20 км 8/1 1350 м
[Cu hum Ci fib]
+26.2 +13.5 45 1014.3 1008.3
12 18.06 нст 1
{4}
20 км 9/3 1500 м
[Cu hum Ci fib]
+26.4 +13.6 45 +28 +40 жарко 1014.0 1008.0
13 18.06
{4}
20 км 8/3 1500 м
[Cu hum Ci fib]
+27.5 +11.5 37 1013.7 1007.7
14 18.06 ЮВ 2
{5}
20 км 8/1 1500 м
[Cu med, cong Ci fib]
+27.9 +12.7 39 +29 +40 жарко 1013.2 1007.2
15 18.06 нст 1
{5}
20 км 8/1 1500 м
[Cu hum Ci fib]
+28.1 +12.2 37 +29 +38 жарко 1012.6 1006.6
16 18.06
{5}
20 км 5/1 1500 м
[Cu hum Ci fib]
+27.4 +12.0 38 1012.1 1006.1
18 18.06 нст 1
{5}
20 км 5/1 1500 м
[Cu hum Ci fib]
+26.6 +13.5 44 +29 +30 жарко 1011.2 1005.2 +28.8
19 18.06
{2}
20 км 5/1 1500 м
[Cu hum Ci fib]
+25.4 +12.8 46 1011.1 1005.1
20 18.06
{1}
20 км 9/0
[Ac trans Ci fib]
+24.0 +13.1 51 1011.2 1005.2
21 18.06 нст 1
{2}
20 км 9/0
[Ac trans]
+23.5 +14.2 56 +26 +26 жарко 1011.0 1005.0
22 18.06
{2}
20 км н/о +21.7 +14.4 63 1010.7 1004.6
23 18.06 Ю 2
{3}
20 км н/о +20.5 +15.3 72 +24 +24 комфорт 1010.2 1004.2
00 19.06 нст 1
{3}
20 км н/о +19.7 +14.9 74 +23 +23 комфорт 1009.6 1003.5
01 19.06
{2}
19 км н/о +18.7 +14.9 79 1009.2 1003.1
02 19.06
{2}
13 км н/о +17.5 +14.9 85 1008.7 1002.6
03 19.06 ЮВ 2
{3}
10 км н/о +17.0 +14.9 87 +17 +17 1008.2 1002.1
04 19.06 ЮВ 2
{4}
10 км 5/0
[Ac cast Ci fib]
+17.5 +14.1 80 +18 +18 1007.2 1001.2
05 19.06 Ю 2
{4}
15 км 6/0
[Ac cast Ci fib]
+18.7 +14.3 76 +20 +21 1007.0 1000.8
06 19.06 нст 1
{6}
20 км 6/0
[Ac cast Ci fib]
+20.9 +14.6 67 +25 +27 комфорт 1007.2 1001.2 +16.8
07 19.06
{4}
20 км 6/0
[Ac cast Ci fib]
+22.3 +15.0 63 1007.3 1001.2
08 19.06 С 3
{5}
20 км 6/0
[Ac cast Ci fib]
+22.4 +16.0 67 +27 +32 душно 1007.7 1001.7
09 19.06 нст 1
{5}
20 км 9/0
[Ac cast Ci fib]
+23.6 +15.8 62 +27 +36 жарко 1007.7 1001.7
10 19.06 Ю 3
{6}
20 км 9/0
[Ac cast Ci fib]
+25.5 +16.1 56 +29 +37 душно 1007.7 1001.7
11 19.06 ЮЗ 3
{7}
20 км 8/0
[Ac cast Ci fib]
+24.5 +16.5 61 +28 +38 душно 1008.3 1002.3
12 19.06 Ю 2
{7}
20 км {ливн. осадки} 9/3 1050 м
[Cu Sc Ac und]
+24.8 +17.0 62 +29 +33 душно 1008.1 1002.2 0.0
14 19.06 Ю 3
{5}
20 км 8/3 600 м
[Cb calv Ac und Ci sp]
+26.2 +14.4 48 +29 +34 жарко 1006.5 1000.6
15 19.06 нст 1
{7}
12 км дождь н/о +18.3 +16.5 89 +20 +20 1007.2 1001.2
16 19.06 Ю 3
{7}
20 км {дождь} н/о +20.3 +17.2 82 +24 +24 комфорт 1007.1 1001.0
17 19.06 ЮЗ 3
{12}
12 км сильн. дождь н/о +17.1 +15.6 91 +17 +17 1008.1 1001.8
18 19.06 нст 1
{12}
20 км {дождь} н/о +18.0 +16.3 90 +19 +19 1008.1 1002.0 +27.6
20 19.06 Ю 2
{4}
20 км слаб. дождь н/о +17.2 +16.2 94 +18 +18 1008.7 1002.6
21 19.06 Ю 3
{6}
20 км слаб. дождь н/о +17.2 +15.8 91 +17 +17 1009.1 1002.8
22 19.06 Ю 2
{5}
20 км {дождь} н/о +16.7 +15.1 90 +17 +17 1009.2 1003.1
23 19.06 ЮЗ 3
{5}
19 км н/о +16.2 +15.0 93 +16 +16 1009.6 1003.5
00 20.06 ЮЗ 2
{6}
7000 м {дождь} н/о +16.0 +15.1 94 +16 +16 1010.1 1004.0 0.8
02 20.06
{4}
3100 м дымка н/о +15.5 +15.0 97 1010.2 1004.2
03 20.06 нст 1
{4}
3700 м дымка н/о +15.6 +14.7 94 +16 +16 1010.7 1004.6
04 20.06 ЮЗ 2
{5}
6000 м 9/6 1500 м
[Sc Ac trans]
+14.8 +13.7 93 +14 +14 1011.2 1005.0
05 20.06 ЮЗ 2
{5}
5000 м дымка 9/0
[Ac trans]
+15.0 +13.7 92 +15 +15 1011.5 1005.2
06 20.06 ЮЗ 2
{5}
6000 м 10/9 300 м
[St Ac trans]
+15.6 +14.1 91 +15 +16 1011.7 1005.6 +14.8 0.8
07 20.06 ЮЗ 2
{6}
7000 м 10/9 300 м
[St]
+16.0 +13.4 85 +16 +16 1012.2 1006.0
08 20.06 ЮЗ 3
{7}
12 км 10/9 450 м
[St]
+16.4 +13.2 81 +16 +16 1012.3 1006.2
09 20.06 ЮЗ 3
{7}
12 км 10/9 450 м
[St]
+17.0 +13.4 79 +17 +17 1012.5 1006.2
10 20.06 ЮЗ 2
{7}
12 км в посл. час дождь {ливн. осадки} 9/9 450 м
[Cu Sc]
+17.5 +13.6 78 +18 +19 1012.8 1006.7
11 20.06 ЮЗ 3
{6}
18 км 9/9 540 м
[Cu Sc Ac trans]
+18.2 +12.9 71 +19 +20 1013.1 1007.0
12 20.06
{7}
20 км слаб. ливневой дождь 9/6 700 м
[Cu Sc Ac trans]
+19.0 +13.1 69 1013.2 1007.1 0.2
13 20.06 ЮЗ 2
{4}
20 км в посл. час ливневой дождь 8/4 750 м
[Cu Sc Ac trans]
+20.0 +13.9 68 +23 +28 комфорт 1012.8 1006.7

 

Местоположение метеостанции Шаффен (Бельгия): широта 51.00 долгота 5.07 высота над уровнем моря 54 м.

В архиве по умолчанию представлена погода в Шаффене за последнюю неделю. Архивные данные за месяц целиком и за предыдущие месяцы, начиная с января 2011 года, Вы можете получить, выбрав интересующий диапазон дат из раскрывающегося списка и нажав кнопку "Ввод!".


*Определитесь, кто Вы:
робот инопланетянин человек

Внимание! Время в таблицах - всемирное. Для получения местного времени необходимо прибавить поправку, которая равна 1 ч.

Смотрите также архив погоды в соседних городах и на ближайших метеорологических станциях:

Погода в Ретье (Бельгия) (25 км)
Погода в Дипенбеке (Бельгия) (28 км)
Погода в Кляйн-Брогеле (Бельгия) (34 км)
Погода в Бовешене (Бельгия) (35 км)
Погода в Брюсселе (Бельгия) (39 км)
Погода в Эрнаже (Бельгия) (46 км)
Погода в Бьерсете (Бельгия) (47 км)
Погода в Антверпене (Бельгия) (47 км)
Погода в Маастрихте (Нидерланды) (51 км)
Погода в Элле (Нидерланды) (54 км)

Пояснения к столбцам:

Ветер - указаны скорость ветра в м/с - средняя за 10 мин, порывы в срок и между сроками (в фигурных скобках) и направление, откуда дует ветер: С - северный, СВ - северо-восточный, В - восточный, ЮВ - юго-восточный, Ю - южный, ЮЗ - юго-западный, З - западный, СЗ - северо-западный.
Видимость - горизонтальная дальность видимости в метрах или километрах. При видимости от 1 до 10 км при отсутствии осадков обычно наблюдается дымка, при ухудшении видимости до 1 км и менее - туман. В сухую погоду видимость может ухудшаться дымом, пылью или мглою.
Явления - указаны атмосферные явления, наблюдавшиеся в срок или в последний час перед сроком; фигурными скобками обозначены явления, наблюдавшиеся между сроками (за 1-3 часа до срока); квадратными скобками обозначены град или гололедные отложения с указанием их диаметра в мм.
Облачность - указаны через наклонную черту общая и нижняя облачность в баллах и высота нижней границы облаков в метрах; квадратными скобками обозначены формы облаков: Ci - перистые, Cs - перисто-слоистые, Cc - перисто-кучевые, Ac - высококучевые, As - высокослоистые, Sc - слоисто-кучевые, Ns - слоисто-дождевые, Cu - кучевые, Cb - кучево-дождевые. Подробнее классификацию облаков см. в Атласе облаков (PDF).
T - Температура воздуха - температура, измеренная на высоте 2 м над землей.
Td - Температура точки росы - температура, при понижении до которой содержащийся в воздухе водяной пар достигнет насыщения.
f - Относительная влажность воздуха - влажноcть воздуха, измеренная на высоте 2 м над землей.
Te - Эффективная температура - температура, которую ощущает одетый по сезону человек в тени. Характеристика душности погоды. При расчете учитывается влияние влажности воздуха и скорости ветра на теплоощущения человека.
Tes - Эффективная температура на солнце - температура, которую ощущает человек, с поправкой на солнечный нагрев. Характеристика знойности погоды. Зависит от высоты солнца над горизонтом, облачности и скорости ветра. Ночью, в пасмурную погоду, а также при ветре 12 м/с и более поправка равна нулю.
P - Атмосферное давление - приведенное к уровню моря атмосферное давление.
Po - Атмосферное давление - измеренное на уровне метеостанции атмосферное давление.
Tmin - Минимальная температура - минимум температуры воздуха на высоте 2 м над землей.
Tmax - Максимальная температура - максимум температуры воздуха на высоте 2 м над землей.
R - Количество осадков - Количество выпавших осадков за период времени, мм. При наведении курсора мыши на число - период времени, за который выпало указанное количество осадков.
R24 - Количество осадков - Количество выпавших осадков за 24 часа, мм.
S - Снежный покров - Высота снежного покрова, см. При наведении курсора мыши на число - состояние снежного покрова и степень покрытия местности в баллах.